Volver al catálogo

THORAD DELTA 1 DEB

ActivoSSO
NORAD 17023·DEBRIS·🇺🇸 United States

Lanzado Nov 15, 1974 desde Vandenberg Space Force Base

Loading…

Próximos Pases (próximas 24 horas)

TLE

ActualizadoSource: Space-Track

Época: Sep 13, 2026, 11:12 UTC

1 17023U 74089EW  26256.46690255  .00000149  00000-0  10438-2 0  9991
2 17023 101.5174 222.2519 0053201 100.5847  24.2108 12.64728074919864

Sigue THORAD DELTA 1 DEB en tiempo real con AllMySat

Download on the App Store